[[{"header":{"parameterUnit":"m.s-1","parameterCategory":2,"la1":30.2991,"la2":30.254,"lo1":-89.0895,"lo2":-89.0444,"dx":0.0017,"dy":0.0017,"nx":28,"ny":28,"refTime":"2022-12-15T09:00:00:Z","depth":"0","parameterNumber":2,"parameterNumberName":"U-component_of_CURRENTS"},"data":[0,0,0,0,0,0,0,0,0,0,0,0,0,0,0,0,0,0,0,0,0,0,0,0,0,0,0,0,0,0,0,0,0,0,0,0,0,0,0,0,0,0,0,0,0,0,0,0,0,0,0,0,0,0,0,0,0,0,0.1119,0.112,0,0.1247,0.1248,0.125,0.1318,0.1318,0.1319,0.1319,0.1304,0.1303,0.1302,0,0,0,0,0,0,0,0,0,0,0,0,0,0.0979,0.0981,0.1119,0.1121,0.1122,0.1247,0.1248,0.125,0.1318,0.1318,0.1319,0.1319,0.1304,0.1303,0.1302,0,0,0,0,0,0,0,0,0,0,0,0,0,0.1065,0.0981,0.1119,0.1172,0.1178,0.1246,0.1248,0.125,0.1318,0.1318,0.1319,0.1319,0.1304,0.1303,0.1302,0.1289,0,0,0.1299,0.1299,0,0,0,0,0,0,0,0,0.106,0.107,0.1163,0.1169,0.1176,0.1268,0.1194,0.1257,0.1318,0.1264,0.1319,0.1319,0.1279,0.128,0.1304,0.1288,0.1287,0.1299,0.1299,0.1298,0.1298,0,0,0,0,0,0,0,0.1054,0.1065,0.1168,0.1164,0.1172,0.1206,0.1218,0.1207,0.1264,0.1269,0.1274,0.129,0.1281,0.1305,0.1303,0.1287,0.1299,0.1298,0.1298,0.1297,0.1318,0.1319,0,0,0,0,0,0,0.1038,0.106,0.1164,0.1172,0.1119,0.1208,0.1221,0.1237,0.1268,0.1274,0.129,0.1293,0.1306,0.1304,0.1303,0.1345,0.1298,0.1297,0.1297,0.1317,0.1318,0.132,0,0,0,0,0,0,0.1035,0.1046,0.1159,0.112,0.1137,0.1209,0.1227,0.1239,0.1267,0.1285,0.1289,0.1304,0.1306,0.1304,0.1318,0.1343,0.1297,0.1296,0.1316,0.1317,0.1319,0.1393,0,0,0,0,0,0,0.103,0.1044,0.1043,0.1119,0.1138,0.1199,0.1227,0.1242,0.1276,0.1282,0.1298,0.1298,0.1306,0.1319,0.1317,0.134,0.1295,0.1314,0.1316,0.1318,0.1389,0.1397,0.1403,0,0,0,0,0,0.1025,0.1025,0.1042,0.1055,0.1137,0.12,0.1213,0.1265,0.1276,0.1289,0.1315,0.1298,0.1331,0.132,0.1316,0.134,0.1313,0.1316,0.1318,0.1386,0.1395,0.1403,0,0,0,0,0,0,0.0962,0.1034,0.1055,0.1076,0.1132,0.1212,0.1226,0.1261,0.1295,0.1294,0.1309,0.1311,0.1334,0.1321,0.1308,0.1353,0.1319,0.1321,0.1371,0.138,0.1387,0.1416,0.1294,0,0,0,0,0,0.0947,0.0966,0.1042,0.1057,0.1082,0.1151,0.1179,0.1219,0.1264,0.128,0.1297,0.1314,0.1342,0.1347,0.1357,0.1372,0.1424,0.1385,0.1392,0.1399,0.142,0.1564,0.1588,0.1328,0.1328,0.1328,0,0,0.093,0.0969,0.0981,0.1045,0.109,0.114,0.1169,0.1214,0.126,0.1267,0.1313,0.1331,0.135,0.1387,0.1395,0.1379,0.1493,0.1402,0.1408,0.1426,0.1569,0.1595,0.1619,0.133,0.1329,0.1329,0,0,0.0932,0.0937,0.0973,0.1012,0.1079,0.1119,0.113,0.1207,0.1243,0.1286,0.132,0.1374,0.1373,0.1439,0.146,0.1508,0.1526,0.1481,0.1545,0.1684,0.1708,0.1729,0.1807,0.1835,0.1487,0.1487,0.1487,0,0.0917,0.0986,0.0991,0.1038,0.1089,0.1109,0.1179,0.1202,0.1275,0.1328,0.1298,0.141,0.1417,0.1529,0.1548,0.1531,0.1585,0.1512,0.1699,0.1721,0.1743,0.1817,0.1847,0.1491,0.1491,0.149,0.149,0,0.0981,0.1021,0.104,0.1112,0.1136,0.1202,0.1237,0.1263,0.1291,0.135,0.1447,0.1484,0.1568,0.157,0.1568,0.1719,0.1698,0.1694,0.1685,0.1774,0.1844,0.1875,0.1497,0.1495,0.1494,0.1493,0,0,0.1053,0.109,0.1108,0.1157,0.1203,0.1244,0.1276,0.1375,0.1438,0.1475,0.1596,0.1655,0.1689,0.1718,0.1739,0.1846,0.2025,0.1825,0.1831,0.1916,0.2299,0.2232,0.2258,0.2059,0.2065,0.207,0.2281,0,0.115,0.1243,0.1237,0.133,0.1399,0.1394,0.1429,0.1482,0.1528,0.1617,0.1686,0.1777,0.1738,0.179,0.1896,0.1987,0.2111,0.1966,0.2187,0.2193,0.2138,0.2295,0.2223,0.2402,0.231,0.2315,0.2319,0,0.1299,0.1331,0.1435,0.1483,0.1511,0.1531,0.162,0.1663,0.1744,0.178,0.1874,0.1907,0.2049,0.2003,0.2239,0.2143,0.2238,0.2305,0.2315,0.2255,0.2186,0.2302,0.246,0.2378,0.2365,0.2362,0.2358,0,0.1441,0.1507,0.1593,0.1614,0.1634,0.1663,0.1679,0.1733,0.1782,0.1897,0.1938,0.2093,0.2162,0.2318,0.2389,0.2349,0.2635,0.2607,0.2649,0.2642,0.2627,0.2609,0.2751,0.2838,0.2837,0.2837,0.2836,0,0.1615,0.1693,0.165,0.17,0.1777,0.1753,0.1844,0.1871,0.1919,0.1981,0.2035,0.2101,0.2248,0.2378,0.2471,0.263,0.2713,0.2708,0.2726,0.2641,0.2623,0.2582,0.2529,0.2844,0.2843,0.2841,0.284,0,0.1786,0.1776,0.1863,0.1856,0.1852,0.1904,0.1896,0.1931,0.1973,0.2051,0.2082,0.2162,0.231,0.2433,0.2676,0.2723,0.2829,0.2934,0.2779,0.2775,0.2716,0.2667,0.2733,0.2684,0.3053,0.3053,0.3053,0,0.1896,0.195,0.1959,0.1946,0.1936,0.1969,0.1957,0.1975,0.1985,0.2068,0.2092,0.2237,0.2302,0.2587,0.2738,0.2934,0.2842,0.2968,0.2902,0.2748,0.2711,0.256,0.2503,0.2906,0.2905,0.2905,0.2904,0,0.2045,0.2032,0.2036,0.2021,0.1999,0.2011,0.1989,0.2005,0.201,0.205,0.209,0.2157,0.239,0.253,0.2754,0.287,0.2815,0.2954,0.2888,0.27,0.2463,0.2409,0.2673,0.2896,0.2897,0.2897,0.2898,0.2898,0.2097,0.211,0.2056,0.2042,0.202,0.1988,0.1974,0.1939,0.1952,0.1952,0.2048,0.2108,0.2325,0.2622,0.2724,0.2826,0.2787,0.2798,0.2782,0.2663,0.2531,0.2733,0.2903,0.2904,0.2904,0.2905,0.2905,0,0.2085,0.2056,0.2051,0.1995,0.1948,0.1956,0.192,0.1874,0.184,0.1886,0.1914,0.2082,0.2258,0.2452,0.2664,0.2655,0.2583,0.2601,0.2406,0.2385,0.2682,0.2586,0.2581,0.2581,0.2581,0.2581,0.2582,0.2582,0.2051,0.2,0.1987,0.1892,0.1859,0.1776,0.1745,0.1709,0.1714,0.1714,0.1762,0.1845,0.2072,0.2317,0.2425,0.2437,0.2312,0.2223,0.2214,0.2432,0.2448,0.2463,0.2362,0.2311,0.2311,0.1836,0.1832,0.183]},{"header":{"parameterUnit":"m.s-1","parameterCategory":2,"la1":30.2991,"la2":30.254,"lo1":-89.0895,"lo2":-89.0444,"dx":0.0017,"dy":0.0017,"nx":28,"ny":28,"refTime":"2022-12-15T09:00:00:Z","depth":"0","parameterNumber":3,"parameterNumberName":"V-component_of_CURRENTS"},"data":[0,0,0,0,0,0,0,0,0,0,0,0,0,0,0,0,0,0,0,0,0,0,0,0,0,0,0,0,0,0,0,0,0,0,0,0,0,0,0,0,0,0,0,0,0,0,0,0,0,0,0,0,0,0,0,0,0,0,-0.0622,-0.0623,0,-0.0748,-0.075,-0.0751,-0.0856,-0.0857,-0.0858,-0.0859,-0.1029,-0.1033,-0.1036,0,0,0,0,0,0,0,0,0,0,0,0,0,-0.0592,-0.0592,-0.0621,-0.0623,-0.0624,-0.0748,-0.075,-0.0752,-0.0856,-0.0857,-0.0858,-0.0859,-0.1028,-0.1032,-0.1037,0,0,0,0,0,0,0,0,0,0,0,0,0,-0.0653,-0.0591,-0.0621,-0.0688,-0.0695,-0.0747,-0.075,-0.0752,-0.0856,-0.0857,-0.0858,-0.0859,-0.1026,-0.1032,-0.1037,-0.1048,0,0,-0.1055,-0.1057,0,0,0,0,0,0,0,0,-0.0649,-0.0654,-0.0677,-0.0684,-0.0692,-0.0785,-0.0802,-0.0852,-0.0856,-0.0799,-0.0859,-0.086,-0.0948,-0.096,-0.0986,-0.1056,-0.1064,-0.1055,-0.1059,-0.1061,-0.1063,0,0,0,0,0,0,0,-0.0645,-0.065,-0.0675,-0.0678,-0.0687,-0.0754,-0.0763,-0.0813,-0.0868,-0.0804,-0.0811,-0.0819,-0.0953,-0.098,-0.0991,-0.1066,-0.1055,-0.106,-0.1064,-0.1066,-0.1135,-0.1133,0,0,0,0,0,0,-0.0614,-0.0645,-0.0671,-0.0678,-0.0669,-0.0752,-0.0763,-0.0756,-0.0867,-0.0884,-0.0818,-0.0823,-0.097,-0.0984,-0.0997,-0.0982,-0.1061,-0.1066,-0.107,-0.1136,-0.1135,-0.1133,0,0,0,0,0,0,-0.0613,-0.0615,-0.0666,-0.0664,-0.0674,-0.075,-0.0743,-0.0758,-0.0787,-0.0877,-0.0896,-0.083,-0.0971,-0.0989,-0.1041,-0.099,-0.1069,-0.1074,-0.1138,-0.1136,-0.1134,-0.0974,0,0,0,0,0,0,-0.0611,-0.0613,-0.0597,-0.066,-0.0673,-0.0682,-0.0742,-0.076,-0.0788,-0.0797,-0.0894,-0.0911,-0.0973,-0.1031,-0.1046,-0.1,-0.1079,-0.114,-0.1137,-0.1134,-0.0981,-0.0966,-0.0953,0,0,0,0,0,-0.061,-0.0573,-0.0595,-0.0599,-0.0648,-0.068,-0.0693,-0.0755,-0.0787,-0.0788,-0.086,-0.0908,-0.1022,-0.1036,-0.1053,-0.1007,-0.1142,-0.1138,-0.1135,-0.0987,-0.0969,-0.0954,0,0,0,0,0,0,-0.0542,-0.0582,-0.0608,-0.0582,-0.0623,-0.0696,-0.0697,-0.0744,-0.0802,-0.081,-0.0904,-0.0925,-0.0948,-0.1003,-0.1015,-0.1018,-0.1083,-0.1083,-0.0965,-0.0948,-0.0935,-0.0865,-0.1083,0,0,0,0,0,-0.0519,-0.0507,-0.0561,-0.054,-0.0553,-0.0625,-0.0646,-0.0687,-0.0746,-0.0774,-0.0838,-0.09,-0.0945,-0.0969,-0.1021,-0.1029,-0.1027,-0.1006,-0.0992,-0.098,-0.0935,-0.0888,-0.0865,-0.1121,-0.1121,-0.1121,0,0,-0.0484,-0.0505,-0.0497,-0.0526,-0.0562,-0.0563,-0.0641,-0.0658,-0.0656,-0.0781,-0.0794,-0.0861,-0.094,-0.0949,-0.0961,-0.0988,-0.0909,-0.0976,-0.0965,-0.0925,-0.0882,-0.0856,-0.0834,-0.1119,-0.1119,-0.112,0,0,-0.0405,-0.0427,-0.0393,-0.042,-0.0461,-0.0508,-0.0507,-0.0571,-0.0596,-0.0624,-0.0703,-0.0726,-0.0815,-0.0836,-0.0865,-0.0802,-0.0843,-0.0834,-0.07,-0.0656,-0.0633,-0.0613,-0.0579,-0.0557,-0.0819,-0.0819,-0.0819,0,-0.0356,-0.0329,-0.0388,-0.0368,-0.0379,-0.0474,-0.0447,-0.048,-0.0552,-0.0548,-0.0604,-0.0671,-0.0742,-0.0721,-0.0705,-0.0763,-0.0758,-0.0757,-0.0633,-0.0613,-0.0595,-0.0565,-0.0543,-0.0811,-0.0812,-0.0812,-0.0813,0,-0.0259,-0.0245,-0.0225,-0.0234,-0.0255,-0.0247,-0.0305,-0.0315,-0.0363,-0.0393,-0.0388,-0.0474,-0.0502,-0.0531,-0.0605,-0.0516,-0.056,-0.0624,-0.0664,-0.0559,-0.0536,-0.0515,-0.0799,-0.0802,-0.0804,-0.0806,0,0,-0.0102,-0.0149,-0.0135,-0.0141,-0.0186,-0.0196,-0.0175,-0.0181,-0.0151,-0.0201,-0.0147,-0.021,-0.0247,-0.0278,-0.036,-0.0323,-0.0209,-0.041,-0.0411,-0.0354,-0.011,-0.0158,-0.0141,-0.0257,-0.0252,-0.0249,-0.0144,0,0.0,0.0037,-0.0003,0.0035,0.0041,-0.0028,-0.0004,-0.002,-0.0045,-0.0016,-0.0055,-0.0055,-0.0155,-0.0168,-0.0135,-0.021,-0.0148,-0.0231,-0.0238,-0.0237,-0.0274,-0.0116,-0.0136,-0.0046,-0.0125,-0.0122,-0.0119,0,0.0132,0.0126,0.0164,0.014,0.0144,0.0154,0.0168,0.0178,0.0196,0.0187,0.0209,0.0155,0.0193,0.0088,0.011,0.0055,0.0014,-0.0031,-0.003,-0.0105,-0.0245,-0.0166,-0.0007,-0.0103,-0.0089,-0.0091,-0.0093,0,0.024,0.0257,0.0274,0.0266,0.0228,0.025,0.0242,0.0251,0.0268,0.0325,0.0349,0.0376,0.0371,0.036,0.0244,0.0193,0.0264,0.0173,0.0113,0.0107,0.0079,0.0063,0.0168,0.0254,0.0253,0.0253,0.0253,0,0.0348,0.037,0.0322,0.0324,0.0366,0.033,0.0387,0.039,0.0426,0.0464,0.0458,0.0492,0.0439,0.0434,0.035,0.0301,0.0355,0.0202,0.016,0.0129,0.0117,0.0015,-0.0067,0.0257,0.0256,0.0255,0.0255,0,0.0422,0.04,0.0414,0.0396,0.0398,0.0422,0.0427,0.0464,0.0505,0.0561,0.0584,0.0604,0.0607,0.0543,0.0512,0.0422,0.0327,0.0346,0.0306,0.026,0.0109,0.0035,0.0127,0.0069,0.0343,0.0343,0.0343,0,0.0432,0.045,0.0447,0.0447,0.0427,0.0454,0.0466,0.0495,0.0524,0.0607,0.0634,0.0681,0.0685,0.0646,0.0533,0.0458,0.034,0.0371,0.0285,0.0168,0.0055,0.0017,-0.0043,0.0308,0.0308,0.0307,0.0307,0,0.0435,0.0446,0.0436,0.0453,0.0461,0.0485,0.0507,0.0544,0.0586,0.0644,0.0706,0.0737,0.0713,0.0646,0.0547,0.0461,0.0295,0.0361,0.027,0.0098,0.0038,-0.0064,0.0151,0.0304,0.0305,0.0305,0.0305,0.0305,0.0412,0.0417,0.0414,0.0433,0.0456,0.0496,0.0524,0.0556,0.0617,0.0699,0.0733,0.0795,0.0726,0.06,0.0471,0.0266,0.0264,0.0184,0.0125,0.0115,0.0015,0.0224,0.0292,0.0292,0.0293,0.0293,0.0293,0,0.0359,0.0371,0.0385,0.041,0.0443,0.0469,0.0526,0.0562,0.0623,0.0713,0.0771,0.0805,0.0654,0.0509,0.026,0.0073,-0.0006,-0.003,-0.008,-0.0117,0.0111,0.006,0.0043,0.0043,0.0043,0.0043,0.0043,0.0043,0.0319,0.0316,0.0341,0.0379,0.0413,0.0464,0.0503,0.0568,0.0641,0.0756,0.0832,0.089,0.0852,0.0369,-0.0009,-0.014,-0.0286,-0.0301,-0.0374,-0.024,-0.0224,-0.021,-0.0273,-0.0359,-0.036,-0.0578,-0.058,-0.0582]}],[{"header":{"parameterUnit":"m.s-1","parameterCategory":2,"la1":30.2991,"la2":30.254,"lo1":-89.0895,"lo2":-89.0444,"dx":0.0017,"dy":0.0017,"nx":28,"ny":28,"refTime":"2022-12-15T09:00:00:Z","depth":"2","parameterNumber":2,"parameterNumberName":"U-component_of_CURRENTS"},"data":[0,0,0,0,0,0,0,0,0,0,0,0,0,0,0,0,0,0,0,0,0,0,0,0,0,0,0,0,0,0,0,0,0,0,0,0,0,0,0,0,0,0,0,0,0,0,0,0,0,0,0,0,0,0,0,0,0,0,0.0273,0.0272,0,0.0201,0.02,0.02,0.0178,0.0178,0.0179,0.0179,0.0149,0.0148,0.0147,0,0,0,0,0,0,0,0,0,0,0,0,0,0.0323,0.0323,0.0273,0.0272,0.0271,0.0201,0.02,0.0199,0.0178,0.0178,0.0179,0.0179,0.0149,0.0148,0.0146,0,0,0,0,0,0,0,0,0,0,0,0,0,0.0281,0.0323,0.0273,0.0252,0.025,0.0202,0.02,0.0199,0.0178,0.0178,0.0179,0.018,0.015,0.0148,0.0146,0.0124,0,0,0.0141,0.014,0,0,0,0,0,0,0,0,0.0284,0.028,0.0256,0.0254,0.0251,0.0199,0.0207,0.0176,0.0178,0.0205,0.0179,0.018,0.0169,0.0166,0.015,0.0122,0.0121,0.0141,0.014,0.0139,0.0138,0,0,0,0,0,0,0,0.0287,0.0282,0.0244,0.0255,0.0252,0.0223,0.0219,0.02,0.0185,0.0203,0.0201,0.0193,0.0168,0.0152,0.0149,0.0121,0.0141,0.0139,0.0138,0.0137,0.0147,0.0148,0,0,0,0,0,0,0.0299,0.0285,0.0247,0.0242,0.0269,0.0222,0.0217,0.0215,0.0184,0.018,0.0193,0.0192,0.0155,0.0152,0.0148,0.0206,0.0139,0.0137,0.0136,0.0145,0.0147,0.0148,0,0,0,0,0,0,0.0301,0.0297,0.0249,0.0262,0.0254,0.0221,0.0219,0.0213,0.0202,0.0177,0.0173,0.0188,0.0155,0.0151,0.0137,0.0202,0.0136,0.0135,0.0144,0.0146,0.0148,0.0267,0,0,0,0,0,0,0.0302,0.0298,0.0299,0.0263,0.0254,0.0226,0.0218,0.0212,0.0196,0.0195,0.0172,0.0169,0.0155,0.014,0.0135,0.0198,0.0133,0.0142,0.0145,0.0147,0.0262,0.0273,0.0283,0,0,0,0,0,0.0305,0.0304,0.03,0.0295,0.0258,0.0226,0.0219,0.0197,0.0196,0.0189,0.0175,0.017,0.0154,0.0138,0.0133,0.0198,0.0141,0.0144,0.0147,0.0257,0.0271,0.0283,0,0,0,0,0,0,0.032,0.0301,0.0295,0.0288,0.0263,0.0223,0.0214,0.02,0.0181,0.0187,0.0165,0.016,0.0177,0.0157,0.0141,0.0206,0.0155,0.0157,0.0241,0.0254,0.0264,0.0309,0.0132,0,0,0,0,0,0.0326,0.0328,0.0296,0.0292,0.0281,0.025,0.0235,0.0222,0.0199,0.0191,0.0179,0.0175,0.0183,0.0192,0.0178,0.0202,0.0196,0.0245,0.0256,0.0265,0.0297,0.0355,0.0375,0.0158,0.0158,0.0158,0,0,0.0331,0.0321,0.0321,0.0296,0.0277,0.0277,0.0242,0.0226,0.0241,0.0192,0.0209,0.0197,0.0189,0.0222,0.0232,0.0219,0.0311,0.0269,0.0277,0.0305,0.036,0.0382,0.0401,0.016,0.0159,0.0159,0,0,0.0351,0.0334,0.0348,0.033,0.0307,0.0292,0.0292,0.0262,0.0263,0.0264,0.0254,0.0281,0.0265,0.03,0.0311,0.0369,0.0352,0.0366,0.0477,0.0533,0.0553,0.057,0.054,0.0554,0.039,0.039,0.039,0,0.0361,0.0368,0.0343,0.0349,0.0344,0.0308,0.0321,0.0316,0.0291,0.031,0.0286,0.0326,0.0318,0.0401,0.0436,0.0402,0.0397,0.0433,0.0551,0.0568,0.0584,0.055,0.0564,0.0396,0.0395,0.0395,0.0394,0,0.0393,0.0394,0.0396,0.0406,0.04,0.0394,0.0389,0.0397,0.0398,0.0403,0.0459,0.0456,0.0496,0.0507,0.0495,0.0617,0.056,0.0546,0.0528,0.0614,0.0571,0.0583,0.0405,0.0403,0.0401,0.0399,0,0,0.0417,0.0422,0.0421,0.0422,0.0425,0.0412,0.0464,0.0489,0.0521,0.054,0.06,0.0658,0.0671,0.0687,0.0689,0.0757,0.0848,0.072,0.072,0.0705,0.0921,0.0823,0.0825,0.0866,0.087,0.0873,0.0829,0,0.0446,0.0457,0.0473,0.0489,0.0482,0.0493,0.0533,0.0561,0.0584,0.0628,0.0685,0.0722,0.0736,0.076,0.0847,0.0831,0.0895,0.0858,0.0828,0.0826,0.0743,0.0844,0.0766,0.0718,0.084,0.0842,0.0844,0,0.0466,0.0465,0.0487,0.0503,0.0508,0.0536,0.0586,0.0619,0.0695,0.0719,0.0813,0.0824,0.0936,0.0918,0.1015,0.0991,0.0991,0.0981,0.0978,0.0867,0.0755,0.066,0.0735,0.0863,0.0862,0.086,0.0859,0,0.0439,0.047,0.0483,0.0484,0.0512,0.0552,0.0585,0.0652,0.0677,0.0782,0.0805,0.0932,0.0963,0.1038,0.1037,0.1038,0.1096,0.1077,0.0987,0.0974,0.0894,0.0869,0.1174,0.1174,0.1174,0.1174,0.1174,0,0.0425,0.043,0.0472,0.0459,0.0491,0.0534,0.0587,0.0638,0.0716,0.0759,0.0855,0.0897,0.1005,0.1037,0.106,0.105,0.1119,0.1033,0.0991,0.0922,0.0902,0.1023,0.1006,0.1172,0.1173,0.1173,0.1173,0,0.0364,0.0395,0.0395,0.0441,0.0465,0.048,0.0555,0.0594,0.0674,0.0737,0.077,0.087,0.0925,0.0976,0.1043,0.1036,0.1046,0.1021,0.0888,0.0835,0.0873,0.0862,0.0934,0.0931,0.0928,0.0926,0.0924,0,0.0322,0.0317,0.0355,0.0374,0.0398,0.0441,0.0479,0.056,0.0603,0.0709,0.0732,0.0802,0.0847,0.0874,0.0885,0.0888,0.0964,0.0803,0.0825,0.0914,0.0865,0.0859,0.0852,0.0731,0.0728,0.0725,0.0723,0,0.0238,0.0265,0.0272,0.0309,0.0349,0.0383,0.0448,0.0462,0.057,0.0619,0.069,0.0727,0.0751,0.0741,0.0727,0.0717,0.0804,0.0746,0.0919,0.08,0.0719,0.0672,0.0673,0.07,0.0702,0.0704,0.0705,0.0706,0.0182,0.0181,0.0219,0.026,0.0306,0.0354,0.0381,0.0445,0.0494,0.058,0.0611,0.0644,0.0616,0.0569,0.0571,0.0582,0.062,0.0614,0.0625,0.0638,0.0619,0.0539,0.0476,0.0477,0.0478,0.0479,0.048,0,0.0123,0.0162,0.0182,0.0236,0.0281,0.0337,0.039,0.041,0.0466,0.0513,0.0563,0.0454,0.0438,0.0462,0.0443,0.0422,0.0444,0.0422,0.0473,0.0492,0.0511,0.0491,0.0312,0.0312,0.0312,0.0312,0,0,0.0097,0.0115,0.0141,0.0213,0.0279,0.0341,0.0379,0.0393,0.0414,0.0412,0.042,0.0408,0.0406,0.0345,0.0328,0.0355,0.043,0.0331,0.0452,0.0529,0.0549,0.0588,0.0573,0,0,0,0,0]},{"header":{"parameterUnit":"m.s-1","parameterCategory":2,"la1":30.2991,"la2":30.254,"lo1":-89.0895,"lo2":-89.0444,"dx":0.0017,"dy":0.0017,"nx":28,"ny":28,"refTime":"2022-12-15T09:00:00:Z","depth":"2","parameterNumber":3,"parameterNumberName":"V-component_of_CURRENTS"},"data":[0,0,0,0,0,0,0,0,0,0,0,0,0,0,0,0,0,0,0,0,0,0,0,0,0,0,0,0,0,0,0,0,0,0,0,0,0,0,0,0,0,0,0,0,0,0,0,0,0,0,0,0,0,0,0,0,0,0,-0.0154,-0.0155,0,-0.0222,-0.0223,-0.0223,-0.0268,-0.0268,-0.0269,-0.0269,-0.0304,-0.0305,-0.0305,0,0,0,0,0,0,0,0,0,0,0,0,0,-0.0072,-0.0073,-0.0154,-0.0155,-0.0156,-0.0222,-0.0223,-0.0223,-0.0267,-0.0268,-0.0269,-0.027,-0.0304,-0.0305,-0.0305,0,0,0,0,0,0,0,0,0,0,0,0,0,-0.0117,-0.0073,-0.0154,-0.0189,-0.0193,-0.0222,-0.0223,-0.0223,-0.0267,-0.0268,-0.0269,-0.027,-0.0304,-0.0304,-0.0305,-0.029,0,0,-0.0307,-0.0307,0,0,0,0,0,0,0,0,-0.0115,-0.012,-0.0183,-0.0187,-0.0191,-0.0241,-0.0207,-0.0245,-0.0267,-0.0235,-0.0269,-0.027,-0.0282,-0.0284,-0.029,-0.0291,-0.0293,-0.0307,-0.0307,-0.0307,-0.0307,0,0,0,0,0,0,0,-0.0111,-0.0117,-0.0177,-0.0184,-0.0189,-0.0205,-0.0212,-0.0214,-0.0249,-0.0238,-0.0242,-0.0256,-0.0283,-0.0289,-0.0291,-0.0293,-0.0307,-0.0307,-0.0307,-0.0308,-0.0369,-0.0371,0,0,0,0,0,0,-0.0109,-0.0114,-0.0175,-0.018,-0.0159,-0.0206,-0.0214,-0.0221,-0.025,-0.0256,-0.0255,-0.0257,-0.0288,-0.029,-0.0292,-0.0331,-0.0307,-0.0308,-0.0308,-0.0368,-0.037,-0.0371,0,0,0,0,0,0,-0.0107,-0.0113,-0.0173,-0.0152,-0.0161,-0.0207,-0.0214,-0.0222,-0.025,-0.0263,-0.0269,-0.0279,-0.0289,-0.0292,-0.0312,-0.0331,-0.0308,-0.0308,-0.0367,-0.0369,-0.037,-0.0373,0,0,0,0,0,0,-0.0104,-0.0112,-0.0117,-0.0151,-0.0162,-0.0201,-0.0214,-0.0223,-0.0257,-0.0262,-0.0285,-0.0288,-0.029,-0.0311,-0.0312,-0.0331,-0.0309,-0.0365,-0.0368,-0.037,-0.0371,-0.0375,-0.0378,0,0,0,0,0,-0.0101,-0.0101,-0.0116,-0.0124,-0.0167,-0.0201,-0.0208,-0.0241,-0.0258,-0.027,-0.0288,-0.0289,-0.0329,-0.0312,-0.0313,-0.0333,-0.0364,-0.0367,-0.037,-0.037,-0.0374,-0.0378,0,0,0,0,0,0,-0.0073,-0.0108,-0.0124,-0.0137,-0.0174,-0.0211,-0.0225,-0.0251,-0.0275,-0.0282,-0.0293,-0.0297,-0.0326,-0.0331,-0.0312,-0.0362,-0.0351,-0.0354,-0.0351,-0.0355,-0.0358,-0.0324,-0.0309,0,0,0,0,0,-0.0068,-0.0074,-0.0119,-0.0131,-0.0149,-0.019,-0.021,-0.0237,-0.0264,-0.0278,-0.0295,-0.0317,-0.0336,-0.0346,-0.0361,-0.0377,-0.0387,-0.0397,-0.04,-0.0403,-0.0379,-0.0423,-0.0427,-0.0381,-0.0381,-0.0381,0,0,-0.0061,-0.0081,-0.0087,-0.0125,-0.0154,-0.018,-0.0204,-0.024,-0.0261,-0.0275,-0.0304,-0.0326,-0.0344,-0.0368,-0.0382,-0.0375,-0.0427,-0.0407,-0.0408,-0.0382,-0.0426,-0.0431,-0.0434,-0.0383,-0.0383,-0.0382,0,0,-0.0053,-0.0071,-0.0079,-0.0106,-0.0154,-0.018,-0.0196,-0.0244,-0.0265,-0.0293,-0.0316,-0.0346,-0.0372,-0.0389,-0.04,-0.0429,-0.0444,-0.0451,-0.0434,-0.0479,-0.0482,-0.0486,-0.052,-0.0527,-0.0451,-0.0451,-0.0451,0,-0.0052,-0.0064,-0.0089,-0.0108,-0.013,-0.0182,-0.0204,-0.0228,-0.0278,-0.0289,-0.0304,-0.0356,-0.0377,-0.0402,-0.0415,-0.0434,-0.0459,-0.0415,-0.0481,-0.0484,-0.0487,-0.0522,-0.0529,-0.0452,-0.0452,-0.0452,-0.0452,0,-0.0055,-0.0068,-0.0077,-0.0113,-0.0136,-0.0166,-0.0206,-0.0233,-0.0265,-0.0289,-0.0326,-0.0356,-0.0382,-0.041,-0.0415,-0.0454,-0.0466,-0.0481,-0.0464,-0.0492,-0.0528,-0.0534,-0.0453,-0.0452,-0.0452,-0.0452,0,0,-0.0053,-0.0076,-0.0082,-0.0097,-0.0144,-0.0168,-0.0191,-0.0227,-0.0244,-0.0288,-0.0306,-0.0348,-0.0366,-0.0378,-0.0408,-0.0444,-0.0499,-0.0466,-0.0469,-0.0487,-0.0596,-0.0506,-0.0505,-0.0531,-0.0532,-0.0532,-0.0618,0,-0.0059,-0.0087,-0.0091,-0.0121,-0.0145,-0.0173,-0.0185,-0.0218,-0.0248,-0.0276,-0.031,-0.0338,-0.0355,-0.0373,-0.0411,-0.0475,-0.0515,-0.0474,-0.0576,-0.0579,-0.0484,-0.0508,-0.0476,-0.054,-0.0624,-0.0625,-0.0626,0,-0.0073,-0.0087,-0.0114,-0.0127,-0.0138,-0.0154,-0.0185,-0.0202,-0.0235,-0.0249,-0.0275,-0.0306,-0.0349,-0.037,-0.047,-0.0447,-0.0511,-0.0563,-0.0568,-0.0476,-0.05,-0.0525,-0.0549,-0.0638,-0.0637,-0.0636,-0.0635,0,-0.0085,-0.0104,-0.0124,-0.0136,-0.0159,-0.0163,-0.0173,-0.0198,-0.0201,-0.0233,-0.0237,-0.0295,-0.0323,-0.0406,-0.0482,-0.0493,-0.0593,-0.063,-0.0611,-0.0606,-0.0589,-0.0579,-0.0704,-0.0704,-0.0704,-0.0703,-0.0703,0,-0.0104,-0.0118,-0.013,-0.0147,-0.015,-0.0164,-0.0167,-0.0178,-0.0187,-0.0176,-0.0221,-0.0224,-0.0334,-0.0395,-0.048,-0.054,-0.0594,-0.0594,-0.0615,-0.059,-0.058,-0.0666,-0.0661,-0.0707,-0.0706,-0.0705,-0.0705,0,-0.0118,-0.0135,-0.0148,-0.016,-0.016,-0.0162,-0.0147,-0.014,-0.0151,-0.0139,-0.0142,-0.0188,-0.0251,-0.0348,-0.0483,-0.052,-0.0604,-0.0617,-0.0561,-0.0572,-0.0598,-0.0592,-0.0621,-0.0618,-0.0616,-0.0614,-0.0613,0,-0.0123,-0.0137,-0.0148,-0.0137,-0.0138,-0.0134,-0.0118,-0.0123,-0.0101,-0.0104,-0.0087,-0.0142,-0.0151,-0.0289,-0.0373,-0.0484,-0.0552,-0.0522,-0.052,-0.0567,-0.0587,-0.0585,-0.0582,-0.053,-0.0528,-0.0526,-0.0525,0,-0.0111,-0.0121,-0.0124,-0.0106,-0.0091,-0.007,-0.0045,-0.0028,-0.0017,0.0004,0.0029,0.0017,-0.0081,-0.0163,-0.0282,-0.0355,-0.0494,-0.0485,-0.0581,-0.0521,-0.0479,-0.0498,-0.05,-0.0509,-0.0511,-0.0512,-0.0513,-0.0514,-0.0081,-0.0071,-0.0068,-0.0047,-0.0026,0.0013,0.0048,0.0085,0.013,0.0186,0.0143,0.0134,-0.0018,-0.0135,-0.0232,-0.0323,-0.0351,-0.0419,-0.0428,-0.0437,-0.0375,-0.0328,-0.032,-0.0321,-0.0321,-0.0321,-0.0322,0,-0.0021,-0.0015,0.0005,0.0035,0.0079,0.007,0.0122,0.0177,0.0259,0.0268,0.0305,0.0166,0.008,-0.0084,-0.0179,-0.0251,-0.029,-0.0296,-0.0356,-0.0369,-0.0381,-0.0319,-0.0249,-0.0249,-0.0249,-0.0249,0,0,0.0017,0.0051,0.0056,0.0136,0.0162,0.0234,0.0272,0.0345,0.0368,0.0383,0.0352,0.0308,0.0087,0.0005,-0.0114,-0.0169,-0.0244,-0.0174,-0.0221,-0.0287,-0.0298,-0.0437,-0.0353,0,0,0,0,0]}],[{"header":{"parameterUnit":"m.s-1","parameterCategory":2,"la1":30.2991,"la2":30.254,"lo1":-89.0895,"lo2":-89.0444,"dx":0.0017,"dy":0.0017,"nx":28,"ny":28,"refTime":"2022-12-15T09:00:00:Z","depth":"4","parameterNumber":2,"parameterNumberName":"U-component_of_CURRENTS"},"data":[0,0,0,0,0,0,0,0,0,0,0,0,0,0,0,0,0,0,0,0,0,0,0,0,0,0,0,0,0,0,0,0,0,0,0,0,0,0,0,0,0,0,0,0,0,0,0,0,0,0,0,0,0,0,0,0,0,0,-0.0292,-0.0293,0,-0.0298,-0.0298,-0.0298,-0.0252,-0.0251,-0.025,-0.0249,-0.0247,-0.0248,-0.0249,0,0,0,0,0,0,0,0,0,0,0,0,0,-0.0281,-0.0281,-0.0292,-0.0293,-0.0293,-0.0299,-0.0298,-0.0298,-0.0252,-0.0251,-0.025,-0.0249,-0.0247,-0.0248,-0.0249,0,0,0,0,0,0,0,0,0,0,0,0,0,-0.0283,-0.0281,-0.0292,-0.0273,-0.0272,-0.0299,-0.0298,-0.0298,-0.0253,-0.0251,-0.025,-0.0248,-0.0246,-0.0248,-0.0249,-0.0286,0,0,-0.0253,-0.0253,0,0,0,0,0,0,0,0,-0.0283,-0.0283,-0.0276,-0.0275,-0.0273,-0.0276,-0.0294,-0.0295,-0.0253,-0.0257,-0.0249,-0.0247,-0.0259,-0.0259,-0.0259,-0.0286,-0.0286,-0.0253,-0.0254,-0.0254,-0.0255,0,0,0,0,0,0,0,-0.0283,-0.0283,-0.0291,-0.0276,-0.0275,-0.0279,-0.0276,-0.0294,-0.0263,-0.0256,-0.0254,-0.026,-0.0258,-0.0258,-0.0259,-0.0286,-0.0253,-0.0254,-0.0255,-0.0255,-0.0318,-0.0319,0,0,0,0,0,0,-0.0289,-0.0283,-0.0291,-0.0292,-0.0278,-0.028,-0.0278,-0.0274,-0.0263,-0.0261,-0.0261,-0.0258,-0.0256,-0.0257,-0.0259,-0.0265,-0.0254,-0.0255,-0.0256,-0.0318,-0.0319,-0.032,0,0,0,0,0,0,-0.0288,-0.0289,-0.0291,-0.0291,-0.0292,-0.0282,-0.0278,-0.0275,-0.0268,-0.0268,-0.0264,-0.0257,-0.0255,-0.0257,-0.0259,-0.0266,-0.0256,-0.0257,-0.0316,-0.0318,-0.0319,-0.0301,0,0,0,0,0,0,-0.0288,-0.0288,-0.0295,-0.0291,-0.0292,-0.0306,-0.028,-0.0276,-0.0276,-0.0271,-0.0264,-0.0262,-0.0254,-0.0258,-0.0261,-0.0267,-0.0258,-0.0315,-0.0317,-0.0319,-0.0301,-0.0302,-0.0303,0,0,0,0,0,-0.0287,-0.0294,-0.0295,-0.0297,-0.0299,-0.0307,-0.0307,-0.0293,-0.0277,-0.028,-0.0265,-0.0262,-0.0271,-0.0259,-0.0263,-0.027,-0.0314,-0.0317,-0.0319,-0.03,-0.0302,-0.0303,0,0,0,0,0,0,-0.0292,-0.0291,-0.0291,-0.0298,-0.0305,-0.03,-0.0314,-0.0297,-0.0289,-0.0285,-0.027,-0.0268,-0.0274,-0.0282,-0.027,-0.0296,-0.0295,-0.0298,-0.028,-0.0282,-0.0283,-0.0285,-0.0259,0,0,0,0,0,-0.0301,-0.0305,-0.0307,-0.0317,-0.0327,-0.0322,-0.0327,-0.0314,-0.0306,-0.03,-0.0283,-0.0282,-0.029,-0.0291,-0.0298,-0.0315,-0.0322,-0.0326,-0.0327,-0.0327,-0.0334,-0.0356,-0.0359,-0.0326,-0.0326,-0.0326,0,0,-0.0309,-0.031,-0.0314,-0.032,-0.0331,-0.0341,-0.032,-0.033,-0.0325,-0.0306,-0.029,-0.0285,-0.0296,-0.0303,-0.0308,-0.0307,-0.0337,-0.033,-0.033,-0.0337,-0.0359,-0.0362,-0.0364,-0.0328,-0.0327,-0.0327,0,0,-0.0323,-0.0332,-0.034,-0.035,-0.0365,-0.0362,-0.0364,-0.0353,-0.0338,-0.033,-0.0314,-0.0312,-0.0313,-0.0317,-0.0325,-0.0346,-0.0342,-0.0348,-0.0353,-0.0374,-0.0376,-0.0379,-0.0372,-0.0374,-0.0348,-0.0348,-0.0348,0,-0.0336,-0.0337,-0.0346,-0.036,-0.0371,-0.0371,-0.038,-0.0377,-0.0355,-0.0346,-0.0324,-0.0323,-0.0325,-0.0345,-0.034,-0.0348,-0.0346,-0.034,-0.0373,-0.0376,-0.0379,-0.0372,-0.0374,-0.0347,-0.0347,-0.0347,-0.0347,0,-0.035,-0.0359,-0.0373,-0.0385,-0.0398,-0.0411,-0.0412,-0.0407,-0.0385,-0.0367,-0.0363,-0.0356,-0.0353,-0.0356,-0.0349,-0.0373,-0.0359,-0.0369,-0.0364,-0.0381,-0.0372,-0.0375,-0.0346,-0.0347,-0.0347,-0.0347,0,0,-0.0365,-0.0375,-0.0383,-0.0388,-0.041,-0.0418,-0.0429,-0.0428,-0.0426,-0.0401,-0.0391,-0.0394,-0.0376,-0.0385,-0.0379,-0.0392,-0.0396,-0.0381,-0.0382,-0.0363,-0.0416,-0.0338,-0.0333,-0.0403,-0.0404,-0.0405,-0.0394,0,-0.0376,-0.0386,-0.0392,-0.0412,-0.0423,-0.0434,-0.0443,-0.0444,-0.0431,-0.042,-0.0419,-0.0412,-0.0394,-0.0387,-0.0397,-0.0398,-0.0406,-0.0397,-0.0414,-0.0414,-0.0334,-0.0336,-0.0408,-0.0396,-0.0397,-0.0397,-0.0398,0,-0.0394,-0.0393,-0.0405,-0.0415,-0.0424,-0.0437,-0.0454,-0.046,-0.0464,-0.0448,-0.0443,-0.0428,-0.0435,-0.0423,-0.0433,-0.0422,-0.0419,-0.042,-0.042,-0.0359,-0.0342,-0.0384,-0.0403,-0.0402,-0.0402,-0.0402,-0.0401,0,-0.0398,-0.0409,-0.0411,-0.0419,-0.0432,-0.0443,-0.0456,-0.0469,-0.0472,-0.0471,-0.0459,-0.0461,-0.0453,-0.0462,-0.0432,-0.0438,-0.0436,-0.0453,-0.0383,-0.0377,-0.0458,-0.0456,-0.0476,-0.0476,-0.0476,-0.0476,-0.0476,0,-0.0409,-0.0418,-0.0413,-0.0421,-0.0427,-0.0449,-0.0463,-0.0471,-0.0487,-0.0481,-0.0476,-0.0458,-0.0462,-0.0444,-0.0439,-0.0396,-0.0442,-0.038,-0.0372,-0.0448,-0.0445,-0.0458,-0.0456,-0.0475,-0.0475,-0.0475,-0.0475,0,-0.0425,-0.0421,-0.0426,-0.043,-0.0432,-0.0447,-0.0468,-0.0472,-0.0491,-0.0485,-0.0483,-0.0462,-0.0424,-0.0411,-0.041,-0.0388,-0.0373,-0.0352,-0.0404,-0.04,-0.0302,-0.0299,-0.0288,-0.0286,-0.0283,-0.0281,-0.028,0,-0.043,-0.0433,-0.0431,-0.0427,-0.0431,-0.0446,-0.045,-0.0472,-0.0469,-0.047,-0.0457,-0.0426,-0.0396,-0.0327,-0.0327,-0.0301,-0.0299,-0.029,-0.0324,-0.0291,-0.0285,-0.0286,-0.0287,-0.0276,-0.0275,-0.0275,-0.0274,0,-0.0438,-0.0443,-0.044,-0.0426,-0.0425,-0.0418,-0.0425,-0.042,-0.0433,-0.045,-0.0403,-0.0368,-0.0315,-0.0282,-0.0244,-0.0238,-0.0299,-0.0267,-0.0273,-0.0304,-0.0276,-0.0272,-0.0276,-0.0266,-0.0267,-0.0268,-0.0268,0,-0.0444,-0.0442,-0.0433,-0.0419,-0.0408,-0.0382,-0.0392,-0.037,-0.0372,-0.0373,-0.0351,-0.0317,-0.0307,-0.0247,-0.0221,-0.0188,-0.0198,-0.0206,-0.0215,-0.0224,-0.0204,-0.0159,-0.0103,0,0,0,0,0,-0.0437,-0.0428,-0.0418,-0.039,-0.0376,-0.0364,-0.0361,-0.037,-0.0374,-0.0328,-0.0342,-0.0286,-0.0227,-0.0212,-0.0163,-0.0193,-0.0202,-0.0136,-0.0218,-0.0221,-0.023,-0.021,0,0,0,0,0,0,-0.0427,-0.0427,-0.0413,-0.0361,-0.0334,-0.0311,-0.0305,-0.0312,-0.0286,-0.0294,-0.0259,-0.0265,-0.0209,-0.0246,-0.0157,-0.0151,-0.0194,-0.0121,-0.012,-0.0215,-0.0224,-0.0231,-0.0214,0,0,0,0,0]},{"header":{"parameterUnit":"m.s-1","parameterCategory":2,"la1":30.2991,"la2":30.254,"lo1":-89.0895,"lo2":-89.0444,"dx":0.0017,"dy":0.0017,"nx":28,"ny":28,"refTime":"2022-12-15T09:00:00:Z","depth":"4","parameterNumber":3,"parameterNumberName":"V-component_of_CURRENTS"},"data":[0,0,0,0,0,0,0,0,0,0,0,0,0,0,0,0,0,0,0,0,0,0,0,0,0,0,0,0,0,0,0,0,0,0,0,0,0,0,0,0,0,0,0,0,0,0,0,0,0,0,0,0,0,0,0,0,0,0,0.0282,0.0283,0,0.0288,0.0287,0.0287,0.0294,0.0294,0.0295,0.0296,0.0265,0.0264,0.0262,0,0,0,0,0,0,0,0,0,0,0,0,0,0.0274,0.0274,0.0282,0.0283,0.0283,0.0288,0.0287,0.0287,0.0294,0.0294,0.0295,0.0296,0.0266,0.0264,0.0262,0,0,0,0,0,0,0,0,0,0,0,0,0,0.0273,0.0274,0.0282,0.0291,0.0293,0.0288,0.0287,0.0287,0.0294,0.0294,0.0295,0.0296,0.0266,0.0264,0.0262,0.023,0,0,0.0256,0.0255,0,0,0,0,0,0,0,0,0.0273,0.0273,0.0289,0.0291,0.0292,0.0296,0.0274,0.0268,0.0293,0.0287,0.0296,0.0297,0.0275,0.0272,0.0264,0.0229,0.0228,0.0255,0.0254,0.0253,0.0253,0,0,0,0,0,0,0,0.0273,0.0273,0.0279,0.029,0.0292,0.0295,0.0295,0.0272,0.0271,0.0288,0.029,0.0299,0.0275,0.0266,0.0263,0.0227,0.0255,0.0254,0.0252,0.0251,0.0158,0.0157,0,0,0,0,0,0,0.0283,0.0273,0.0278,0.0279,0.0291,0.0295,0.0295,0.0289,0.0272,0.0272,0.0298,0.0299,0.0269,0.0265,0.0262,0.0194,0.0253,0.0251,0.025,0.0159,0.0158,0.0157,0,0,0,0,0,0,0.0282,0.0283,0.0278,0.0282,0.0282,0.0294,0.0288,0.0289,0.0281,0.0281,0.028,0.029,0.0269,0.0265,0.0225,0.0194,0.025,0.0248,0.0161,0.0159,0.0157,0.0077,0,0,0,0,0,0,0.0282,0.0282,0.0284,0.0282,0.0282,0.0267,0.0288,0.0289,0.0288,0.0289,0.0273,0.0272,0.027,0.0228,0.0223,0.0192,0.0247,0.0162,0.016,0.0158,0.0081,0.0073,0.0066,0,0,0,0,0,0.0281,0.0271,0.0284,0.0285,0.0283,0.0267,0.0265,0.0275,0.0286,0.0272,0.0256,0.0272,0.0211,0.0224,0.0219,0.0187,0.0163,0.0161,0.0158,0.0085,0.0075,0.0066,0,0,0,0,0,0,0.0266,0.0271,0.0285,0.0278,0.0274,0.027,0.027,0.027,0.0246,0.0248,0.0245,0.0241,0.0198,0.0204,0.0219,0.0156,0.0194,0.019,0.014,0.013,0.0123,0.0124,0.0245,0,0,0,0,0,0.0267,0.0262,0.0266,0.0261,0.0263,0.0266,0.0264,0.0261,0.0245,0.0237,0.0217,0.0203,0.0181,0.0165,0.0147,0.0104,0.0129,0.0085,0.0077,0.0071,0.0069,0.007,0.0062,0.0148,0.0148,0.0148,0,0,0.0261,0.0266,0.0264,0.0258,0.0264,0.0241,0.0265,0.0253,0.0222,0.0236,0.018,0.017,0.0164,0.0116,0.0098,0.0116,0.0061,0.0067,0.0061,0.0063,0.0066,0.0058,0.005,0.0146,0.0146,0.0146,0,0,0.0238,0.0253,0.0239,0.0231,0.0234,0.0227,0.0221,0.0202,0.0186,0.0132,0.0138,0.0109,0.0065,0.0053,0.0044,-0.0017,0.002,-0.002,-0.0066,-0.0066,-0.0072,-0.0078,-0.0049,-0.0052,-0.0025,-0.0026,-0.0026,0,0.0232,0.0219,0.0231,0.0211,0.0208,0.0216,0.0191,0.0165,0.0124,0.011,0.0105,0.0047,0.0035,-0.0005,-0.0035,-0.0036,-0.0019,-0.0032,-0.0076,-0.0081,-0.0086,-0.0054,-0.0056,-0.003,-0.0029,-0.0029,-0.0028,0,0.0192,0.0186,0.0178,0.0158,0.0145,0.0128,0.0105,0.0074,0.0057,0.0035,-0.0014,-0.004,-0.0067,-0.0081,-0.0086,-0.0127,-0.0098,-0.0086,-0.0052,-0.0099,-0.0063,-0.0063,-0.0036,-0.0034,-0.0033,-0.0032,0,0,0.0156,0.0154,0.0149,0.0153,0.0121,0.0111,0.0054,0.0021,0.0006,-0.0055,-0.008,-0.0146,-0.0148,-0.0157,-0.0163,-0.0175,-0.0202,-0.0157,-0.0155,-0.0128,-0.0184,-0.0196,-0.0196,-0.0203,-0.0204,-0.0204,-0.0143,0,0.0126,0.0106,0.0093,0.0065,0.0061,0.0046,0.0003,-0.0032,-0.0059,-0.0089,-0.0119,-0.0152,-0.018,-0.0192,-0.0218,-0.0197,-0.0209,-0.0219,-0.0142,-0.0139,-0.0145,-0.02,-0.0207,-0.0143,-0.0143,-0.0143,-0.0143,0,0.0082,0.0084,0.0063,0.0059,0.0055,0.0024,-0.0003,-0.0046,-0.0089,-0.0112,-0.0157,-0.0172,-0.0217,-0.0223,-0.0236,-0.0242,-0.0231,-0.0214,-0.0211,-0.0194,-0.0153,-0.0087,-0.0143,-0.0143,-0.0143,-0.0143,-0.0143,0,0.008,0.0059,0.0057,0.005,0.0032,0.0016,-0.0007,-0.0049,-0.0075,-0.0124,-0.0135,-0.0187,-0.0197,-0.0215,-0.0219,-0.0227,-0.0202,-0.0196,-0.0191,-0.0189,-0.0157,-0.0151,-0.0205,-0.0205,-0.0205,-0.0206,-0.0206,0,0.0059,0.0054,0.0064,0.0063,0.0051,0.0029,0.0003,-0.003,-0.0066,-0.0095,-0.0145,-0.0168,-0.02,-0.0199,-0.0208,-0.0205,-0.0197,-0.0209,-0.0188,-0.019,-0.0189,-0.0156,-0.0151,-0.0203,-0.0204,-0.0204,-0.0205,0,0.0052,0.006,0.0059,0.0056,0.0052,0.0039,0.0006,-0.0018,-0.0047,-0.0082,-0.0102,-0.0143,-0.0157,-0.0165,-0.0161,-0.0176,-0.0171,-0.0167,-0.0151,-0.0128,-0.0154,-0.0154,-0.0158,-0.0158,-0.0158,-0.0158,-0.0158,0,0.0052,0.0055,0.0058,0.005,0.0046,0.003,0.0005,-0.0022,-0.0049,-0.0074,-0.0093,-0.0105,-0.0137,-0.0124,-0.0144,-0.0144,-0.0154,-0.014,-0.0187,-0.0177,-0.0156,-0.0156,-0.0155,-0.0159,-0.0159,-0.0159,-0.0159,0,0.0042,0.0044,0.0042,0.0033,0.0017,-0.0003,-0.003,-0.0038,-0.0074,-0.0075,-0.0097,-0.0115,-0.0113,-0.0132,-0.0125,-0.0134,-0.0151,-0.0142,-0.0142,-0.0186,-0.0178,-0.0157,-0.0156,-0.0159,-0.0159,-0.0159,-0.0159,0,0.0027,0.002,0.0014,0.0005,-0.0016,-0.0045,-0.0049,-0.0074,-0.0089,-0.01,-0.0101,-0.0112,-0.0109,-0.0124,-0.0126,-0.0133,-0.0146,-0.0156,-0.0155,-0.0155,-0.0191,-0.0182,-0.0158,0,0,0,0,0,0.001,-0.0007,-0.002,-0.0037,-0.0057,-0.0063,-0.0086,-0.009,-0.0088,-0.0107,-0.0104,-0.0114,-0.0128,-0.0132,-0.0142,-0.014,-0.0151,-0.0154,-0.0163,-0.0163,-0.0162,-0.021,0,0,0,0,0,0,-0.0008,-0.0027,-0.0028,-0.0069,-0.0082,-0.0112,-0.0121,-0.0121,-0.0127,-0.0117,-0.0121,-0.0114,-0.0124,-0.0114,-0.0138,-0.014,-0.0149,-0.0153,-0.0154,-0.0163,-0.0163,-0.0162,-0.0211,0,0,0,0,0]}]]